Back to catalog

CZ-4C DEB

AliveLEO
NORAD 45484·DEBRIS·🇨🇳 China

Launched Apr 10, 2018 from Jiuquan Satellite Launch Center

Loading…

Next Passes (next 24 hours)

TLE

FreshSource: Space-Track

Epoch: Sep 14, 2026, 10:38 UTC

1 45484U 18034M   26257.44369022 -.00000077  00000-0  17648-4 0  9998
2 45484  63.3859 253.3850 0273560   9.0785 351.5043 13.42946604379390

Track CZ-4C DEB in real time with AllMySat

Download on the App Store